Showing default

HULIANWANG DIGUI-129, 67237

Orbit data source: Space-Track

HULIANWANG DIGUI-129, 67237 is a payload satellite owned by Zhongguo Xingwang (CN) in LEO that was launched on Thu, 25 Dec 2025 UTC via a CHANG ZHENG 8A launch vehicle from the Wenchang Satellite Launch Center (WSC). Payload-class satellites include a variety of spacecraft equipped with specific instruments for various scientific and technological missions. These include communications satellites like Starlink; space stations such as the ISS; scientific satellites like the Hubble; Earth observation satellites from companies like Planet Labs, Umbra, and HawkEye 360; GPS; miniature CubeSats for education and research; and military/defense satellites.

Loading next visibility...
Identifier
67237, 2025-311B
Orbit
LEO
Country
Flag of CNCN / PRC
Related business
Manufacturer
CAST
Mission
Operational Civil Communications
Bus & Motor
XINGWANG C, Unknown motor
Mass
~700 kg wet, ~700 kg dry
Launch date (UTC)
2025-12-25 (6 months ago)
Launch vehicle
CHANG ZHENG 8A
Launch site
Wenchang Satellite Launch Center (WSC)
Object type
Payload
Rocket body
Debris
Shape & HBR
Box + 2 Pan, 14.5 m
Radar Cross Section
5.935 m², Large (>1 m²)

Expand to show TLE details & history
Last TLE update: 21 hours ago

TLE from 21 hours ago
0 HULIANWANG DIGUI-129
1 67237U 25311B   26163.23328704 -.00000150  00000-0 -55424-4 0  9996
2 67237  50.0068 133.3711 0001007 311.8040  48.2746 13.29322919 22680
Epoch: 2026-06-12T05:35Z
TLE epoch observation values (Epoch: 2026-06-12T05:35:56.000Z)
Latitude
-0.00001°
Longitude
148.82208°
Altitude
1,149.32 km
Speed
7.28 km/s
True Right ascension
08h 53m 29s
True Declination
0° 00' 00"
Sunlit
Object was in daylight at epoch
Visualization orbit readout
Latitude
Unknown
Longitude
Unknown
Altitude
Unknown
Speed
Unknown
Apparent Right ascension
Unknown
Apparent Declination
Unknown
Sunlit
N/A
Visualization observer readout
Local Sidereal Time
12:44:29
Azimuth
Unknown
Elevation
Unknown
Doppler factor
Unknown
Orbital elements
Apogee altitude
1,150.781 km
Perigee altitude
1,149.264 km
Semi-major axis
7,528.16 km
Eccentricity
0.0001
Inclination
50.0068°
RAAN
133.3711°
Arg. of periapsis
311.804°
True anomaly
48.28321°
Mean anomaly
48.2746°
Eccentric anomaly
48.27891°
Mean motion
3.32284 °/min
Orbital period
108.34 mins
BSTAR
-0.000055424
Loading maneuver chart data...
Computing Atmospheric mass density...
Loading historical data...
Loading historical data...
Loading historical data...
Loading historical data...
Loading historical data...
Loading historical data...
Loading historical data...

Documentation

Showing up to 5 results
|